Regional Weather Roundup
Issued by NWS

Home | Current Version | Previous Version | Text Only | Print | Product List | Glossary On
Versions: 1 2 3 4 5 6 7 8 9 10 11 12 13 14 15 16 17 18 19 20 21 22 23 24 25 26 27 28 29 30 31 32 33 34 35 36 37 38 39 40 41 42 43 44 45 46 47 48 49 50
000
ASUS44 KFWD 191210
RWRTX
NORTH TEXAS HOURLY WEATHER ROUNDUP
NATIONAL WEATHER SERVICE FORT WORTH TX
700 AM CDT THU APR 19 2018

NOTE: "FAIR" INDICATES FEW OR NO CLOUDS BELOW 12,000 FEET WITH NO
SIGNIFICANT WEATHER AND/OR OBSTRUCTIONS TO VISIBILITY.

TXZ118-119-191300-
DALLAS/FORT WORTH METROPLEX

CITY           SKY/WX    TMP DP  RH WIND       PRES   REMARKS
DFW AIRPORT    MOCLDY    49  35  58 N8        30.29R
6HR MIN TEMP:  49; 6HR MAX TEMP:  59;

DALLAS LOVE    FAIR      52  32  46 NW5       30.31R
6HR MIN TEMP:  51; 6HR MAX TEMP:  63;

FTW MEACHAM    FAIR      50  37  61 NW3       30.32R
6HR MIN TEMP:  49; 6HR MAX TEMP:  60;

DAL-EXECUTIVE  FAIR      51  31  46 N3        30.30R
6HR MIN TEMP:  51; 6HR MAX TEMP:  63;

FTW-ALLIANCE   FAIR      41  35  79 NW3       30.32R
6HR MIN TEMP:  39; 6HR MAX TEMP:  57;

FTW-NAS-JRB    FAIR      49  40  71 W5        30.32R
6HR MIN TEMP:  49; 6HR MAX TEMP:  61;

FTW-SPINKS     CLEAR     46  34  61 NW9       30.33R
ARLINGTON      FAIR      44  36  73 NW5       30.31R
6HR MIN TEMP:  44; 6HR MAX TEMP:  61;

GRAND PRAIRIE  CLEAR     52  32  46 N7        30.32R
ADDISON        CLEAR     52  30  43 N6        30.32R
MESQUITE       CLEAR     52  34  50 N5        30.30R
LANCASTER      FAIR      49  33  53 CALM      30.32R
6HR MIN TEMP:  48; 6HR MAX TEMP:  59;

$$

TXZ091>094-102>105-117-120-121-131>134-191300-
NORTH CENTRAL TEXAS

CITY           SKY/WX    TMP DP  RH WIND       PRES   REMARKS
SHRMAN/DENISON FAIR      42  33  69 N7        30.33R WCI  38
6HR MIN TEMP:  42; 6HR MAX TEMP:  55;

GAINESVILLE    FAIR      43  31  64 N7        30.35R WCI  38
6HR MIN TEMP:  42; 6HR MAX TEMP:  53;

BOWIE          FAIR      46  32  57 N3        30.33R
6HR MIN TEMP:  39; 6HR MAX TEMP:  53;

BRIDGEPORT     FAIR      39  33  78 CALM      30.36R
6HR MIN TEMP:  37; 6HR MAX TEMP:  51;

DECATUR        FAIR      49  29  47 CALM      30.32R
6HR MIN TEMP:  48; 6HR MAX TEMP:  55;

DENTON         FAIR      42  35  76 NW5       30.32R WCI  39
6HR MIN TEMP:  40; 6HR MAX TEMP:  52;

MCKINNEY       FAIR      46  36  68 N8        30.31R
6HR MIN TEMP:  42; 6HR MAX TEMP:  56;

BONHAM         FAIR      44  33  67 N5        30.32R
6HR MIN TEMP:  42; 6HR MAX TEMP:  56;

GREENVILLE     FAIR      45  36  70 N5        30.31R
ROCKWALL       FAIR      46  37  69 MISG      30.31R
6HR MIN TEMP:  46; 6HR MAX TEMP:  56;

TERRELL        FAIR      47  35  63 CALM      30.30R
6HR MIN TEMP:  46; 6HR MAX TEMP:  55;

WAXAHACHIE     FAIR      50  34  53 N5        30.32R
6HR MIN TEMP:  50; 6HR MAX TEMP:  61;

CLEBURNE       FAIR      50  32  50 N9        30.32R
GRANBURY       FAIR      46  35  66 W5        30.33R
6HR MIN TEMP:  44; 6HR MAX TEMP:  56;

$$

TXZ083>090-098>101-113>116-127>130-139>142-154-155-191300-
WESTERN NORTH TEXAS

CITY           SKY/WX    TMP DP  RH WIND       PRES   REMARKS
WICHITA FALLS  FAIR      42  31  64 N7        30.34R WCI  38
6HR MIN TEMP:  41; 6HR MAX TEMP:  51;

WF-KICKAPOO    FAIR      46  33  60 N7        30.37R
6HR MIN TEMP:  46; 6HR MAX TEMP:  53;

VERNON         FAIR      42  27  56 CALM      30.37R
6HR MIN TEMP:  42; 6HR MAX TEMP:  72;

ABILENE        FAIR      49  28  44 E9        30.33R
6HR MIN TEMP:  42; 6HR MAX TEMP:  51;

ABILENE-DYESS  CLEAR     39  20  45 CALM      30.33R
6HR MIN TEMP:  35; 6HR MAX TEMP:  46;

GRAHAM           N/A     41  32  70 CALM      30.33R
6HR MIN TEMP:  41; 6HR MAX TEMP:  52;

BRECKENRIDGE   FAIR      41  32  70 CALM      30.35R
6HR MIN TEMP:  41; 6HR MAX TEMP:  49;

CISCO          FAIR      48  28  46 E7        30.33R
EASTLAND       FAIR      48  30  49 NE5       30.33R
6HR MIN TEMP:  35; 6HR MAX TEMP:  49;

RANGER         FAIR      45  32  60 NE6       30.33R
MINERAL WELLS  FAIR      43  32  65 NW5       30.31R
6HR MIN TEMP:  43; 6HR MAX TEMP:  52;

STEPHENVILLE   FAIR      49  31  50 NE6       30.34R
6HR MIN TEMP:  45; 6HR MAX TEMP:  54;

COMANCHE       FAIR      48  33  54 CALM      30.33R
6HR MIN TEMP:  45; 6HR MAX TEMP:  58;

BROWNWOOD      FAIR      48  28  46 E3        30.33R
COLEMAN        FAIR      45  30  55 N3        30.34R
6HR MIN TEMP:  42; 6HR MAX TEMP:  49;

BRADY          FAIR      52  28  40 NE9G16    30.31R
$$

TXZ143>147-156>162-174-175-191300-
CENTRAL TEXAS

CITY           SKY/WX    TMP DP  RH WIND       PRES   REMARKS
WACO           FAIR      49  35  58 N6        30.29R
6HR MIN TEMP:  49; 6HR MAX TEMP:  56;

WACO-TSTC      CLEAR     48  37  66 NE6       30.30
WACO-MCGREGOR  FAIR      48  36  63 N5        30.30R
6HR MIN TEMP:  46; 6HR MAX TEMP:  55;

HILLSBORO      FAIR      47  36  65 N5        30.30R
6HR MIN TEMP:  47; 6HR MAX TEMP:  59;

CORSICANA      FAIR      50  38  63 CALM      30.31R
6HR MIN TEMP:  49; 6HR MAX TEMP:  57;

MEXIA          FAIR      49  37  61 NW6       30.28R
6HR MIN TEMP:  49; 6HR MAX TEMP:  60;

HEARNE         FAIR      55  35  47 N5        30.29R
6HR MIN TEMP:  50; 6HR MAX TEMP:  60;

CAMERON        FAIR      50  39  66 N5        30.29R
6HR MIN TEMP:  50; 6HR MAX TEMP:  56;

TEMPLE         FAIR      52  35  52 N8        30.30R
6HR MIN TEMP:  47; 6HR MAX TEMP:  55;

KILLEEN        CLEAR     52  32  46 N7        30.30R
KILLEEN-SKYLRK FAIR      51  35  54 N9        30.30R
6HR MIN TEMP:  51; 6HR MAX TEMP:  58;

FORT HOOD      FAIR      53  35  50 NE12      30.26R
6HR MIN TEMP:  50; 6HR MAX TEMP:  57;

GATESVILLE     FAIR      52  34  50 NE6       30.32R
HAMILTON       FAIR      48  34  58 NE7       30.31R
6HR MIN TEMP:  48; 6HR MAX TEMP:  55;

LAMPASAS       FAIR      50  33  51 NE9       30.29R
6HR MIN TEMP:  49; 6HR MAX TEMP:  55;

$$

TXZ095>097-106>112-122>126-135>138-148>153-164>167-191300-
EAST TEXAS

CITY           SKY/WX    TMP DP  RH WIND       PRES   REMARKS
PARIS          FAIR      45  34  65 N7        30.31R
6HR MIN TEMP:  43; 6HR MAX TEMP:  55;

SULPHUR SPRNGS FAIR      50  36  58 N8        30.33R
6HR MIN TEMP:  50; 6HR MAX TEMP:  58;

MOUNT PLEASANT FAIR      48  34  57 N8        30.30R
6HR MIN TEMP:  45; 6HR MAX TEMP:  60;

GILMER         FAIR      48  35  60 NW3       30.29R
6HR MIN TEMP:  48; 6HR MAX TEMP:  57;

MINEOLA        FAIR      45  37  76 CALM      30.30R
TYLER          FAIR      51  33  50 N6        30.27R
6HR MIN TEMP:  51; 6HR MAX TEMP:  57;

LONGVIEW       FAIR      50  38  63 N3        30.27R
6HR MIN TEMP:  49; 6HR MAX TEMP:  57;

MARSHALL       FAIR      45  40  82 CALM      30.29R
6HR MIN TEMP:  45; 6HR MAX TEMP:  56;

ATHENS         FAIR      50  36  57 CALM      30.28R
PALESTINE      FAIR      54  33  45 N6        30.28R
HENDERSON      FAIR      47  37  67 CALM      30.28R
6HR MIN TEMP:  47; 6HR MAX TEMP:  63;

CENTER         FAIR      49  36  61 N5        30.27R
6HR MIN TEMP:  49; 6HR MAX TEMP:  57;

NACOGDOCHES      N/A     49  38  65 N3        30.27R
6HR MIN TEMP:  49; 6HR MAX TEMP:  60;

LUFKIN         FAIR      53  38  56 N3        30.25R
6HR MIN TEMP:  53; 6HR MAX TEMP:  63;

$$

SUPPLEMENTAL OBSERVATIONS (NWS FORT WORTH AREA)

CITY           SKY/WX    TMP DP  RH WIND       PRES   REMARKS
POSSUM KINGDOM   N/A     48  32  53 E3          N/A



USA.gov is the U.S. government's official web portal to all federal, state and local government web resources and services.